Home   Weather   Belmullet   Past weeks
Flag for Ireland

Past Weather in Belmullet, Ireland — Yesterday and Last 2 Weeks

Now
54 °F

Cool.


Feels Like: 51 °F
Forecast: 50 / 47 °F
Wind: 9 mph from North

Location: Belmullet

Current Time: Oct 19, 2019 at 6:39:34 pm

Latest Report: Oct 19, 2019 at 5:00 pm


Visibility: 13 mi

Pressure: 29.79 "Hg

Humidity: 74%

Dew Point: 46 °F

Location of BelmulletLocation

Past Weather in Belmullet — Graph

°F

Belmullet Temperature Yesterday

Maximum temperature yesterday: 53 °F (at 3:00 pm)
Minimum temperature yesterday: 43 °F (at 7:00 am)
Average temperature yesterday: 48 °F

High & Low Weather Summary for the Past Weeks

 TemperatureHumidityPressure
High61 °F (Oct 4, 5:00 pm)98% (Oct 5, 11:00 am)29.97 "Hg (Oct 5, 11:00 am)
Low43 °F (Oct 18, 7:00 am)64% (Oct 11, 1:00 pm)29.18 "Hg (Oct 17, 5:00 pm)
Average53 °F82%29.52 "Hg
* Reported Oct 4 5:00 pm — Oct 19 5:00 pm, Belmullet. Weather by CustomWeather, © 2019

Note: Actual official high and low records may vary slightly from our data, if they occured in-between our weather recording intervals... More about our weather records

Advertising

Belmullet Weather History for the Previous 24 Hours

Scroll right to see more
 ConditionsComfort  
Time TempWeatherWind HumidityBarometerVisibility
5:00 pm
Sat, Oct 19
54 °FCool.9 mph74%29.79 "Hg12 mi
4:00 pm55 °FCool.10 mph73%29.77 "Hg11 mi
3:00 pm56 °FCool.12 mph69%29.76 "Hg13 mi
2:00 pm56 °FCool.10 mph71%29.74 "Hg12 mi
1:00 pm56 °FCool.10 mph70%29.72 "Hg11 mi
12:00 pm56 °FCool.10 mph71%29.71 "Hg12 mi
11:00 am54 °FCool.10 mph76%29.68 "Hg9 mi
10:00 am53 °FCool.10 mph78%29.66 "Hg9 mi
9:00 am53 °FCool.10 mph81%29.63 "Hg9 mi
8:00 am52 °FCool.12 mph84%29.60 "Hg9 mi
7:00 am51 °FCool.8 mph91%29.58 "Hg4 mi
6:00 am50 °FCool.12 mph88%29.57 "Hg2 mi
5:00 am51 °FCool.7 mph86%29.55 "Hg11 mi
4:00 am51 °FCool.7 mph85%29.54 "Hg14 mi
3:00 am51 °FCool.6 mph87%29.54 "Hg16 mi
2:00 am48 °FCool.3 mph89%29.54 "Hg16 mi
1:00 am48 °FCool.3 mph86%29.50 "Hg19 mi
12:00 am47 °FCool.3 mph89%29.50 "Hg16 mi
11:00 pm
Fri, Oct 18
50 °FRain showers. Overcast.5 mph88%29.50 "Hg7 mi
10:00 pm49 °FCool.3 mph88%29.47 "Hg14 mi
9:00 pm49 °FCool.5 mph85%29.47 "Hg7 mi
8:00 pm49 °FCool.5 mph86%29.44 "Hg12 mi
7:00 pm48 °FCool.5 mph85%29.41 "Hg7 mi
6:00 pm52 °FCool.6 mph78%29.41 "Hg11 mi
Weather by CustomWeather, © 2019

See weather overview